Tracking 19564 objects as of 19-Mar-2019
HD Live streaming from Space Station
objects crossing your sky now

DELTA 2 R/B(1)

Track DELTA 2 R/B(1) now!
10-day predictions
DELTA 2 R/B(1) is classified as:


NORAD ID: 20453
Int'l Code: 1990-008B
Perigee: 423.6 km
Apogee: 819.3 km
Inclination: 35.6 °
Period: 97.0 minutes
Semi major axis: 6992 km
RCS: 9.8525 m2 (large)
Launch date: January 24, 1990
Source: United States (US)
Launch site: AIR FORCE EASTERN TEST RANGE (AFETR)

Note: This is a ROCKET BODY
aabbcc
Your satellite tracking list
Your tracking list is empty




NASA's NSSDC Master Catalog

Two Line Element Set (TLE):
1 20453U 90008B   19077.39831134 +.00000812 +00000-0 +49389-4 0  9995
2 20453 035.6244 069.7274 0282934 091.9400 271.3737 14.84775273543219
Source of the keplerian elements: AFSPC